Погода в Фокино

Россия / Приморский край     42°58′14″N   132°24′39″E
темп.,
°C
ветер,
м/с
пор.,
м/с
влажн.,
%
обл.,
%
осадки,
мм/ч
давл.,
гПа
погр.,
м
24 сентября, пт
пт2401:00+11ссв1294100 1.2 102297
04:00+12с2295100 1.8 102386
07:00+12ссв119498 0.1 102561
10:00+14ссв118855 0.2 1026282
13:00+16юз227483 0.1 1026910
16:00+16юз117329 0.3 1026634
19:00+13ююз12900 0.0 102737
22:00+12в11930 0.0 102835
25 сентября, сб
сб2501:00+11в11930 0.0 102827
04:00+11всв1194100 0.0 102818
07:00+11в1192100 0.0 102821
10:00+16юв1274100 0.0 1028348
13:00+17ююв2376100 0.0 1028532
16:00+17ю2381100 0.1 1026524
19:00+15ююв128993 0.0 102669
22:00+15ююв118999 0.0 102755
26 сентября, вс
вс2601:00+15ююв1187100 0.0 102650
04:00+14вюв1189100 0.0 102541
07:00+14в1188100 0.0 102525
10:00+16юв118396 0.1 1025134
13:00+19юз227159 0.2 1024773
16:00+18юз227552 0.6 1022606
19:00+15зюз11892 0.1 102224
22:00+14вюв11930 0.1 102317
27 сентября, пн
пн2701:00+13вюв11940 0.0 102219
04:00+13в119571 0.0 102121
07:00+13вюв2295100 0.0 102128
10:00+16ююв2382100 0.0 1021403
13:00+18ю3472100 0.1 1020946
16:00+18ю3370100 0.1 1018886
19:00+14юв228967 0.0 101869
22:00+13вюв229187 0.0 102050
28 сентября, вт
вт2801:00+12вюв229161 0.0 101940
04:00+13вюв118799 0.0 101929
07:00+14вюв118468 0.0 101830
10:00+17ююв2268100 0.0 1018488
13:00+19ю3360100 0.0 1017873
16:00+18ююв3460100 0.0 1016603
19:00+14вюв238197 0.0 101671
22:00+15вюв2887100 0.0 1015364